Temperature
17 17 16 16 16 16 16 16 16 16 16 16 16 16 16 16 15 15 15 15 15 15 15 15 15 15 15 15 14 14 14 14 14 13 13 13 13 13 12 12 12 13 12
17 17 16 16 16 16 16 16 16 16 16 16 16 16 16 16 15 15 15 15 15 15 15 15 15 15 14 14 14 14 14 14 14 13 13 13 12 12 12 12 12 12 12
17 17 17 16 16 16 16 16 16 16 16 16 16 16 16 16 15 15 15 15 15 15 15 15 14 14 14 14 14 14 14 14 13 13 13 12 12 12 12 12 12 12 12
17 17 17 16 16 16 16 16 16 16 16 16 16 16 16 15 15 15 15 15 15 15 15 15 15 15 14 14 14 14 14 13 13 13 13 12 12 12 12 12 12 12 12
17 17 17 17 16 16 16 16 16 16 16 16 16 16 15 15 15 15 15 15 15 15 15 15 15 15 15 14 14 14 14 13 13 13 13 13 13 12 12 12 12 11 12
17 17 17 17 16 16 16 16 16 16 16 15 15 15 15 15 15 15 15 15 15 15 15 15 15 15 14 14 14 14 14 14 13 13 13 13 13 12 12 12 12 11 11
17 17 17 17 16 16 16 16 16 16 15 15 15 15 15 15 15 15 15 15 15 14 14 15 14 14 14 14 14 14 14 13 13 13 13 13 12 12 12 12 12 11 11
17 17 17 17 17 16 16 16 16 15 15 15 15 15 15 15 15 15 15 15 15 14 14 14 14 14 14 14 14 14 13 13 13 13 13 13 12 12 12 12 11 11 11
17 17 17 17 17 16 16 16 16 15 15 15 15 15 15 15 15 15 15 15 14 14 14 14 14 14 14 14 14 14 13 13 13 13 13 12 12 12 12 12 11 11 11
18 17 17 17 17 16 16 16 16 16 15 15 15 15 15 15 15 15 15 14 14 14 14 14 14 14 14 14 14 13 13 13 13 13 12 12 12 12 12 11 11 11 11
18 18 17 17 17 16 16 16 16 15 15 15 15 15 15 15 15 15 15 14 14 14 14 14 14 14 14 14 14 13 13 13 13 12 12 12 12 12 12 11 11 11 10
18 18 17 17 16 16 16 16 15 15 15 15 15 15 15 15 15 15 15 14 14 14 14 14 14 14 14 13 13 13 13 13 12 12 12 12 12 11 11 11 11 10 10
18 17 17 16 16 16 16 16 15 15 15 15 15 15 15 15 15 14 14 14 14 14 14 14 13 13 13 13 13 13 12 12 12 12 11 11 11 11 11 11 10 10 10
17 17 17 16 16 16 16 15 15 15 15 15 15 15 14 14 14 14 14 14 14 14 14 13 13 13 13 13 13 12 12 12 12 11 11 11 10 10 10 10 10 9 9
17 17 16 16 15 15 15 15 15 15 15 15 15 15 14 14 14 14 14 14 14 13 13 13 13 13 12 12 12 12 12 11 11 11 10 10 10 10 9 9 9 9 8
16 16 16 15 15 15 15 15 14 14 14 14 14 14 14 14 14 14 14 14 13 13 13 13 12 12 12 12 11 11 11 11 11 10 10 10 9 9 9 9 8 8 8
16 16 15 15 15 15 15 15 14 14 14 14 14 14 13 13 13 13 13 13 13 12 12 12 12 12 11 11 11 10 10 10 10 10 10 9 9 9 8 8 8 8 7
16 15 15 15 15 14 14 14 14 14 14 13 13 13 13 13 13 13 13 13 12 12 12 11 11 11 11 11 10 10 10 10 9 9 9 9 8 8 8 8 7 7 7
15 15 15 15 14 14 14 14 14 13 13 13 13 13 13 13 12 12 12 12 12 11 11 11 11 10 10 10 10 10 9 9 9 9 9 8 8 8 7 7 7 6 6
15 15 14 14 14 14 13 13 13 13 13 13 13 13 13 12 12 12 12 11 11 11 11 11 10 10 10 10 10 9 9 9 9 8 8 8 8 7 7 7 6 6 5
14 14 14 14 14 13 13 13 13 13 12 12 12 12 12 12 12 12 12 11 11 11 11 10 10 10 10 9 9 9 9 9 8 8 8 8 7 7 7 6 6 5 5
14 14 13 13 13 13 13 13 12 12 12 12 12 12 12 12 12 11 11 11 11 11 10 10 10 10 10 9 9 9 9 8 8 8 8 7 7 6 6 6 5 5 4
13 13 13 13 13 13 12 12 12 12 12 11 11 11 11 11 11 11 11 11 10 10 10 10 10 9 9 9 9 8 8 8 8 7 7 7 6 6 5 5 5 4 4
12 12 12 12 12 12 12 12 11 11 11 11 11 11 11 11 11 11 10 10 10 10 10 9 9 9 9 9 8 8 8 8 7 7 7 6 6 6 5 5 4 4 3
12 12 12 12 11 11 11 11 11 11 11 10 10 10 10 10 10 10 10 10 9 9 9 9 9 9 8 8 8 8 7 7 7 6 6 6 5 5 5 4 4 3 3
12 11 11 11 11 11 11 11 10 10 10 10 10 10 10 10 9 9 9 9 9 9 9 8 8 8 8 7 7 7 7 7 6 6 6 5 5 5 4 4 3 3 2
Wind_Speed
6 4 4 4 5 4 3 2 2 3 3 4 3 4 5 4 4 4 2 2 2 3 3 4 4 3 3 2 2 2 2 3 3 1 2 2 3 3 4 4 5 5 5
6 5 5 5 5 5 4 3 2 2 3 4 4 4 4 4 5 4 3 2 2 2 3 4 4 3 3 3 2 2 2 2 3 3 1 1 2 2 2 2 3 3 4
6 6 6 6 5 5 5 4 3 2 2 3 4 4 4 4 4 4 4 3 3 3 3 3 3 4 3 3 2 2 1 2 3 3 2 1 1 2 2 2 2 2 2
7 6 6 6 6 6 5 5 4 3 2 2 4 4 4 4 3 3 4 4 4 3 4 4 3 4 3 3 2 2 2 3 2 2 2 1 1 0 1 1 2 2 2
8 7 6 6 6 5 5 4 4 3 3 2 2 4 4 4 3 3 3 4 3 4 4 4 5 8 8 5 4 3 3 2 2 2 1 1 0 0 0 1 0 1 2
8 7 6 6 6 6 6 5 5 4 3 3 2 4 4 4 6 6 4 2 3 3 4 4 6 6 7 8 8 7 5 3 1 1 1 1 1 1 0 0 0 1 2
8 8 7 6 6 6 6 6 5 4 4 3 3 4 5 5 6 5 4 2 2 2 3 3 4 5 6 5 5 4 3 3 2 2 1 1 1 1 1 0 1 0 1
8 8 7 7 7 7 6 6 5 4 4 4 4 4 5 4 5 4 2 2 1 1 1 3 4 4 4 4 4 3 2 1 1 2 2 1 1 1 2 2 1 0 1
9 8 8 8 8 8 7 7 5 5 5 5 4 4 4 4 5 4 3 2 1 0 1 2 3 4 5 5 4 3 2 1 3 4 4 3 2 2 3 2 1 1 2
8 8 8 8 8 8 8 7 5 5 5 5 5 4 5 4 6 6 5 2 2 2 2 2 4 4 5 5 3 2 2 1 1 1 1 0 0 1 1 2 1 1 1
8 8 8 8 8 9 8 7 6 6 6 5 5 4 4 5 6 7 6 3 2 3 2 2 2 5 5 4 3 2 2 0 0 1 1 0 0 1 1 1 1 1 1
8 8 8 7 7 7 7 7 6 6 6 5 4 4 4 4 5 6 7 6 3 2 2 2 3 6 6 4 3 2 2 2 1 1 0 0 0 1 1 2 1 1 1
8 8 7 7 6 6 7 7 6 6 5 5 4 4 3 3 4 6 8 7 4 2 2 5 6 6 6 3 2 2 1 1 0 0 1 1 0 0 1 1 1 1 2
7 7 7 6 6 5 5 5 5 5 5 5 5 4 4 3 3 3 4 4 4 3 2 4 6 5 3 2 2 1 1 1 1 1 1 1 0 0 0 0 0 1 1
7 7 7 6 6 6 5 4 5 4 5 5 4 4 4 3 4 7 6 4 4 4 5 3 2 2 1 1 1 1 1 1 1 1 1 1 0 0 0 1 0 1 1
6 6 5 5 6 6 6 5 5 4 6 6 6 5 4 5 7 8 8 8 8 8 6 3 3 3 2 2 2 2 2 2 2 1 1 1 1 1 1 1 1 1 2
6 6 5 5 5 6 6 6 5 4 5 5 5 5 5 6 7 8 8 8 8 9 4 3 3 3 3 2 2 2 2 2 2 2 1 1 1 1 1 1 1 1 2
6 6 6 5 5 5 5 5 5 6 4 2 2 5 6 7 6 7 8 8 4 4 2 2 3 3 2 2 2 2 2 2 2 2 2 2 2 2 1 1 1 1 2
5 5 5 5 5 5 5 5 5 5 5 4 3 3 5 6 7 7 8 4 4 3 2 2 2 2 2 2 2 2 2 2 2 2 2 2 2 2 2 2 2 2 2
4 6 6 5 5 5 5 5 5 5 5 4 4 3 4 5 4 4 3 2 3 3 3 3 2 2 2 2 2 2 1 1 1 2 2 2 2 2 2 2 2 2 2
4 5 7 5 5 5 5 5 4 4 4 4 4 5 7 5 5 5 4 3 3 3 3 3 2 2 2 1 1 1 1 1 1 1 1 1 1 2 2 2 2 2 2
4 4 4 4 5 5 5 5 5 5 5 5 3 5 8 5 4 4 4 3 3 2 2 2 2 2 2 1 1 1 1 1 1 1 1 1 1 1 1 2 2 2 2
4 4 4 4 4 6 5 4 4 4 4 4 4 4 5 4 3 3 3 3 2 2 2 2 2 1 2 2 2 1 1 1 1 1 2 2 2 2 2 2 2 2 2
5 5 5 4 4 4 5 4 4 4 4 4 4 4 4 4 3 3 3 2 2 2 2 2 2 2 3 2 2 2 1 1 2 2 2 2 2 2 2 2 2 2 2
4 5 4 4 4 5 5 4 4 4 4 3 3 3 3 3 3 2 2 2 2 2 2 2 2 2 2 2 1 1 1 2 2 2 2 2 2 2 2 2 2 2 2
4 5 4 4 4 4 4 4 4 4 4 3 3 3 3 3 3 2 2 2 2 2 2 2 2 2 1 1 1 1 2 2 3 3 2 2 2 2 2 2 2 2 3
Wind_Direction
169 170 155 143 143 143 136 153 163 157 151 148 150 140 139 137 119 98 101 104 104 118 116 111 102 85 80 69 57 49 52 88 110 90 87 96 92 83 88 93 90 92 72
169 167 162 162 164 155 158 171 168 165 157 141 130 124 119 116 111 115 112 100 89 86 99 104 111 105 94 81 62 60 74 90 117 121 95 69 90 92 99 76 77 80 91
169 174 170 167 168 161 161 158 162 157 149 131 127 126 124 120 125 135 133 126 111 99 89 95 103 118 120 117 109 85 87 92 103 123 124 75 70 64 55 31 37 57 68
168 177 176 170 168 167 162 162 156 147 135 134 136 135 128 127 124 122 125 123 112 104 89 85 80 88 95 106 105 95 98 91 95 103 113 101 78 46 77 27 2 358 2
167 174 179 168 157 152 146 144 137 135 138 124 109 124 118 110 96 100 108 126 122 114 112 105 96 94 87 84 90 75 77 82 103 111 114 88 63 26 279 234 341 311 329
167 170 169 163 153 153 152 149 142 139 133 122 128 112 106 104 93 81 70 107 130 132 133 134 126 114 108 99 93 87 89 94 105 111 117 141 222 209 207 83 301 9 320
169 168 169 168 161 162 157 147 145 144 131 122 117 115 113 115 111 95 67 64 74 109 131 130 122 126 130 125 112 99 78 78 110 132 121 203 190 179 150 341 320 161 225
172 172 170 167 163 159 154 156 153 147 141 139 135 132 129 134 136 127 100 97 63 44 80 119 125 122 125 127 130 121 113 85 114 131 148 155 83 112 142 169 199 9 325
178 177 173 170 165 163 163 162 159 156 156 155 152 153 147 154 168 168 146 133 135 134 79 73 115 119 126 121 123 133 133 161 139 133 140 139 108 76 82 68 34 36 316
178 174 171 168 167 167 168 165 162 158 162 156 158 171 168 166 178 181 179 175 178 167 139 103 100 122 121 118 123 140 145 204 127 112 114 261 115 33 52 120 160 178 262
166 164 165 167 170 168 167 165 162 162 162 163 166 171 167 172 180 185 183 183 182 171 157 150 140 142 137 131 133 132 146 88 303 171 175 186 91 84 56 69 107 151 186
151 155 159 163 167 168 161 162 161 160 165 172 174 175 168 172 178 188 185 187 185 171 163 147 146 142 135 129 121 105 85 57 11 18 45 43 54 43 38 69 72 88 137
146 149 152 152 153 155 158 160 162 165 170 174 176 181 174 165 173 175 180 185 191 167 130 130 138 142 138 130 135 131 112 95 141 222 225 225 180 155 75 46 26 32 6
150 152 149 149 142 140 141 153 158 170 177 180 180 180 171 162 170 172 176 177 169 161 140 122 123 126 123 120 108 157 201 208 194 214 219 212 75 48 36 17 338 339 343
151 149 149 146 143 141 136 136 153 161 172 170 172 168 167 181 186 163 158 166 168 165 142 124 120 124 135 147 154 168 185 192 219 228 185 180 188 74 340 6 343 322 296
142 144 145 145 145 144 138 124 98 112 130 139 147 149 153 163 158 158 159 154 154 151 140 145 165 169 177 188 196 208 197 197 208 203 192 189 197 211 248 303 320 283 278
146 146 146 148 151 150 149 147 139 98 87 103 123 133 131 135 141 150 152 147 147 144 143 169 181 187 192 193 196 203 211 207 191 185 191 205 211 216 221 252 271 284 281
147 148 146 149 154 156 156 155 152 150 145 127 114 128 131 133 135 137 133 120 118 141 158 174 189 191 191 194 198 201 201 187 180 193 201 213 217 225 241 251 249 259 271
148 150 148 147 147 149 149 149 147 149 148 141 128 121 132 127 120 123 129 125 141 159 179 186 186 183 181 181 182 182 181 186 190 191 207 218 221 225 242 250 247 268 267
140 144 143 144 147 145 144 144 147 151 150 148 151 150 138 123 120 128 144 149 153 163 173 185 186 178 175 175 178 181 192 195 203 215 227 232 231 228 239 250 257 268 264
140 148 147 147 147 145 142 144 149 148 149 151 155 149 148 155 159 155 162 174 182 181 175 175 174 177 180 176 185 189 190 198 200 221 231 235 235 245 249 248 254 260 269
142 145 147 143 143 140 139 142 144 146 147 145 137 138 145 150 154 158 165 174 183 182 168 154 163 154 154 156 159 176 190 229 254 248 249 252 251 252 263 266 269 273 279
141 140 139 137 134 133 135 138 141 142 143 142 138 133 145 151 148 149 155 164 158 154 128 122 135 121 104 123 143 151 190 233 267 274 249 245 251 252 254 261 271 282 287
142 141 143 142 140 140 141 142 141 140 140 140 137 135 139 151 154 152 154 141 129 120 100 104 109 125 115 120 138 162 190 255 269 255 251 251 247 252 249 264 266 268 272
138 138 141 143 145 144 143 141 137 134 133 135 132 126 126 133 141 140 129 109 107 105 97 99 100 97 110 129 139 181 248 262 277 280 256 246 248 248 251 254 260 268 272
136 136 137 137 134 136 139 141 138 134 132 129 127 128 129 131 134 137 133 124 121 104 80 75 94 101 99 163 209 227 257 265 268 265 261 255 240 249 258 261 270 273 276
Height
1540 1541 1543 1544 1546 1547 1549 1550 1552 1553 1554 1555 1556 1557 1558 1558 1559 1559 1560 1561 1562 1562 1563 1563 1564 1564 1564 1565 1565 1565 1566 1566 1566 1567 1567 1566 1565 1563 1562 1560 1559 1557 1556
1538 1540 1542 1543 1545 1547 1548 1549 1551 1552 1554 1555 1556 1557 1557 1558 1559 1559 1560 1561 1561 1562 1563 1563 1563 1564 1564 1565 1565 1565 1566 1566 1566 1566 1566 1566 1565 1564 1563 1561 1560 1559 1557
1536 1538 1540 1542 1544 1546 1547 1548 1550 1552 1553 1554 1555 1556 1557 1558 1559 1559 1560 1561 1561 1562 1562 1563 1563 1564 1564 1565 1565 1565 1565 1566 1566 1566 1566 1566 1566 1565 1564 1563 1561 1560 1559
1534 1536 1538 1540 1542 1544 1546 1548 1549 1550 1552 1553 1554 1555 1556 1557 1558 1559 1560 1560 1561 1561 1562 1562 1563 1564 1564 1564 1565 1565 1565 1565 1566 1566 1566 1566 1565 1565 1564 1563 1562 1561 1559
1532 1534 1537 1539 1541 1543 1545 1546 1548 1549 1551 1552 1553 1554 1556 1557 1558 1559 1559 1560 1561 1561 1562 1562 1563 1563 1564 1564 1564 1565 1565 1565 1565 1565 1565 1565 1565 1564 1564 1563 1562 1561 1560
1530 1532 1535 1537 1539 1541 1543 1545 1546 1548 1550 1551 1552 1553 1554 1555 1557 1558 1559 1559 1560 1561 1561 1562 1562 1563 1564 1564 1564 1564 1565 1565 1565 1565 1565 1564 1564 1564 1563 1563 1562 1560 1559
1528 1530 1533 1535 1537 1539 1541 1543 1545 1546 1548 1549 1550 1552 1553 1554 1556 1557 1558 1559 1560 1560 1561 1562 1562 1563 1563 1563 1564 1564 1564 1564 1565 1564 1564 1564 1563 1563 1562 1562 1561 1560 1559
1526 1528 1530 1533 1535 1537 1539 1541 1543 1544 1546 1548 1549 1551 1552 1553 1555 1556 1557 1558 1559 1560 1560 1561 1562 1562 1562 1563 1563 1563 1563 1563 1563 1563 1563 1563 1563 1562 1562 1561 1560 1559 1558
1523 1525 1528 1530 1532 1534 1537 1538 1540 1542 1544 1546 1547 1549 1550 1552 1553 1554 1555 1557 1558 1559 1560 1560 1561 1561 1562 1562 1562 1562 1562 1562 1563 1562 1562 1562 1561 1561 1560 1560 1558 1557 1556
1520 1522 1525 1527 1529 1532 1534 1536 1538 1540 1542 1544 1545 1547 1548 1550 1551 1553 1554 1555 1556 1557 1558 1559 1559 1560 1560 1561 1561 1561 1561 1561 1561 1561 1561 1560 1560 1559 1559 1558 1557 1556 1554
1517 1520 1522 1524 1526 1529 1531 1533 1536 1538 1540 1541 1543 1545 1546 1548 1549 1551 1552 1553 1554 1555 1556 1556 1557 1558 1558 1559 1559 1559 1559 1559 1559 1559 1558 1558 1558 1557 1556 1555 1555 1554 1553
1514 1517 1519 1522 1524 1526 1529 1531 1533 1535 1537 1539 1541 1542 1544 1545 1547 1548 1549 1550 1551 1552 1553 1554 1555 1556 1556 1556 1556 1557 1557 1557 1557 1557 1556 1555 1555 1554 1554 1553 1552 1552 1551
1512 1514 1517 1519 1521 1524 1526 1528 1530 1533 1534 1536 1537 1539 1541 1542 1544 1545 1546 1548 1549 1550 1551 1552 1553 1553 1554 1554 1554 1554 1554 1554 1554 1554 1553 1553 1552 1552 1551 1551 1550 1549 1548
1509 1511 1514 1516 1518 1521 1523 1525 1527 1529 1531 1532 1534 1536 1537 1539 1541 1542 1543 1544 1546 1547 1548 1549 1550 1550 1551 1551 1551 1551 1551 1551 1551 1551 1550 1550 1550 1549 1548 1547 1546 1545 1544
1506 1509 1511 1513 1515 1517 1520 1522 1524 1525 1527 1529 1531 1532 1534 1535 1537 1539 1540 1541 1542 1544 1545 1545 1546 1547 1547 1547 1548 1548 1548 1548 1548 1547 1547 1546 1546 1546 1545 1544 1543 1542 1541
1504 1506 1508 1511 1513 1515 1517 1519 1521 1523 1525 1527 1529 1530 1531 1533 1534 1536 1537 1538 1539 1540 1541 1541 1542 1543 1543 1544 1544 1544 1544 1544 1544 1544 1544 1543 1542 1542 1541 1541 1540 1539 1537
1501 1503 1506 1508 1510 1512 1514 1516 1518 1521 1522 1524 1525 1527 1529 1530 1531 1533 1534 1535 1536 1537 1537 1538 1538 1539 1540 1540 1541 1541 1541 1541 1541 1540 1540 1539 1539 1538 1537 1537 1536 1535 1534
1499 1501 1503 1505 1507 1510 1512 1514 1515 1517 1519 1520 1522 1524 1525 1527 1528 1530 1531 1532 1532 1532 1533 1534 1535 1535 1536 1537 1537 1537 1537 1537 1537 1537 1536 1536 1535 1534 1534 1533 1532 1531 1530
1497 1499 1501 1503 1505 1507 1509 1511 1513 1515 1516 1518 1519 1521 1522 1524 1525 1526 1527 1528 1528 1529 1530 1531 1531 1532 1533 1533 1534 1534 1534 1534 1533 1533 1532 1532 1531 1530 1530 1529 1528 1527 1526
1495 1497 1499 1501 1503 1505 1507 1509 1510 1512 1513 1515 1516 1518 1519 1520 1521 1522 1523 1524 1525 1526 1527 1528 1528 1529 1530 1530 1530 1531 1531 1530 1530 1529 1529 1528 1527 1527 1526 1525 1524 1523 1522
1492 1494 1497 1499 1501 1502 1504 1506 1508 1510 1511 1512 1514 1515 1516 1517 1518 1519 1520 1521 1522 1523 1524 1525 1525 1526 1526 1527 1527 1527 1527 1527 1526 1526 1525 1524 1524 1523 1522 1521 1520 1519 1518
1490 1492 1494 1496 1498 1500 1501 1503 1505 1507 1509 1510 1511 1513 1514 1515 1515 1516 1517 1518 1519 1520 1521 1522 1522 1523 1523 1523 1523 1523 1523 1523 1522 1521 1521 1520 1519 1518 1518 1517 1516 1515 1514
1488 1490 1492 1494 1496 1498 1500 1501 1503 1505 1506 1508 1509 1510 1511 1512 1513 1514 1515 1516 1517 1518 1518 1519 1519 1519 1519 1519 1519 1519 1519 1518 1518 1518 1517 1516 1515 1514 1513 1512 1512 1510 1509
1486 1488 1489 1491 1493 1495 1497 1499 1501 1503 1504 1506 1507 1508 1509 1510 1511 1512 1513 1513 1514 1515 1515 1516 1516 1516 1516 1516 1516 1515 1515 1515 1514 1514 1513 1512 1511 1510 1509 1508 1507 1506 1505
1484 1486 1487 1489 1491 1493 1495 1497 1499 1500 1502 1503 1505 1506 1506 1507 1508 1509 1510 1511 1511 1512 1512 1512 1512 1512 1512 1512 1512 1511 1511 1511 1510 1509 1508 1507 1506 1505 1504 1503 1502 1501 1500
1482 1484 1485 1487 1489 1491 1493 1495 1496 1497 1499 1500 1502 1503 1504 1505 1506 1507 1507 1508 1508 1509 1509 1509 1509 1509 1509 1508 1508 1507 1507 1506 1506 1505 1504 1503 1502 1500 1499 1498 1497 1497 1496